Simultaneous Nadir Overpasses (SNOs) Predictions

Prediction of SNOs between METOP-A and TERRA Satellite Orbit:

Table of predicted SNOs for the next 14.0 days since TLE Epoch: 5/22/2016
Index Date (METOP-A) Time (METOP-A) Lat,Lon (METOP-A) SZA (METOP-A ) Date (TERRA) Time (TERRA) Lat,Lon (TERRA) SZA (TERRA ) Distance(km) Time Diff (sec)
1 05/24/2016 21:31:08 81.32, -95.01 63.42 05/24/2016 21:31:29 81.32, -95.16 63.41 2.46 21
2 05/24/2016 22:21:47 -81.33, 72.88 116.52 05/24/2016 22:20:55 -81.33, 72.70 116.57 3.06 52
3 05/27/2016 17:05:31 81.32, -28.81 62.91 05/27/2016 17:05:46 81.31, -28.90 62.90 1.76 15
4 05/27/2016 17:56:10 -81.33, 139.10 117.03 05/27/2016 17:55:12 -81.32, 138.99 117.07 1.80 58
5 05/30/2016 12:39:53 81.32, 37.75 62.49 05/30/2016 12:40:02 81.31, 37.61 62.47 2.48 9
6 05/
